OPS 4682 DEB, 38416

Orbit data source: Space-Track

OPS 4682 DEB, 38416 is space debris in LEO originally from a launch on Sat, 03 Apr 1965 UTC launched from the Air Force Western Test Range (AFWTR). Debris objects in space refer to the collection of defunct objects orbiting the Earth. Examples of debris include non-operational satellites, rocket bodies, and fragments generated from explosions, collisions, or faulty payload assembly.

Loading next visibility...
Identifier
38416, 1965-027DV
Orbit
LEO
Country
Flag of USUS
Related business
Manufacturer
Unknown
Mission
Spacecraft
Bus & Motor
Unknown
Mass
Unknown
Launch date (UTC)
1965-04-03 (61 years ago)
Launch vehicle
Unknown
Launch site
Air Force Western Test Range (AFWTR)
Object type
Payload
Rocket body
Debris
Shape & HBR
Unknown shape, 0.1 m
Radar Cross Section
Small (<0.1 m²)

Expand to show TLE details & history
Last TLE update: 1 day ago

TLE from 1 day ago
0 OPS 4682 DEB
1 38416U 65027DV  26035.33474917 -.00000075  00000-0 -29155-3 0  9995
2 38416  90.2437   6.6557 0033788 125.9745 234.4516 12.95820980617519
Epoch: 2026-02-04T08:02Z
TLE epoch observation values (Epoch: 2026-02-04T08:02:02.328Z)
Latitude
-0.00002°
Longitude
111.64319°
Altitude
1,296.483 km
Speed
7.201 km/s
True Right ascension
00h 26m 37s
True Declination
0° 00' 00"
Sunlit
Object was in daylight at epoch
Visualization orbit readout
Latitude
Unknown
Longitude
Unknown
Altitude
Unknown
Speed
Unknown
Apparent Right ascension
Unknown
Apparent Declination
Unknown
Sunlit
N/A
Visualization observer readout
Local Sidereal Time
15:18:02
Azimuth
Unknown
Elevation
Unknown
Doppler factor
Unknown
Orbital elements
Apogee altitude
1,301.498 km
Perigee altitude
1,249.777 km
Semi-major axis
7,653.774 km
Eccentricity
0.00338
Inclination
90.2437°
RAAN
6.6557°
Arg. of periapsis
125.9745°
True anomaly
234.13735°
Mean anomaly
234.4516°
Eccentric anomaly
234.2944°
Mean motion
3.24138 °/min
Orbital period
111.06 mins
BSTAR
-0.00029155
Loading maneuver chart data...
Computing Atmospheric mass density...
Loading historical data...
Loading historical data...
Loading historical data...
Loading historical data...
Loading historical data...
Loading historical data...
Loading historical data...

Documentation

Showing up to 5 results
|